Terminal Aerodrome Forecast
Issued by NWS Charleston, WV

Current Version | Previous Version | Text Only | Print | Product List | Glossary Off
Versions: 1 2 3 4 5 6 7 8 9 10 11 12 13 14 15 16 17 18 19 20 21 22 23 24

000
FTUS41 KRLX 271139
TAFBKW
TAF
KBKW 271139Z 2712/2812 VRB03KT P6SM SKC
     FM271400 13005KT P6SM SCT030
     FM271700 14006KT P6SM SCT045
     FM280400 14005KT P6SM FEW200=

USA.gov is the U.S. government's official web portal to all federal, state and local government web resources and services.